TimeCDT,TemperatureF,Dew PointF,Humidity,Sea Level PressureIn,VisibilityMPH,Wind Direction,Wind SpeedMPH,Gust SpeedMPH,PrecipitationIn,Events,Conditions,WindDirDegrees,DateUTC
12:15 AM,51.3,49.1,92,30.13,7.0,WNW,4.6,-,N/A,Rain,Rain,290,2012-10-05 05:15:00
12:35 AM,51.1,47.7,88,30.13,7.0,WNW,5.8,-,N/A,Rain,Light Rain,300,2012-10-05 05:35:00
12:55 AM,51.3,47.3,86,30.14,7.0,WNW,4.6,-,N/A,Rain,Rain,290,2012-10-05 05:55:00
1:15 AM,51.1,47.3,87,30.13,10.0,WNW,4.6,-,N/A,Rain,Heavy Rain,290,2012-10-05 06:15:00
1:35 AM,51.8,46.4,82,30.14,7.0,WNW,5.8,-,N/A,Rain,Rain,290,2012-10-05 06:35:00
1:55 AM,51.1,46.8,85,30.13,7.0,Calm,Calm,-,N/A,Rain,Rain,0,2012-10-05 06:55:00
2:15 AM,51.1,46.9,86,30.14,10.0,WNW,6.9,-,N/A,Rain,Rain,300,2012-10-05 07:15:00
2:35 AM,51.1,46.6,85,30.15,7.0,NW,11.5,-,N/A,Rain,Rain,310,2012-10-05 07:35:00
2:55 AM,50.2,44.6,81,30.18,10.0,WNW,18.4,27.6,N/A,Rain,Light Rain,300,2012-10-05 07:55:00
3:15 AM,48.6,44.6,86,30.14,10.0,NNW,11.5,20.7,N/A,Rain,Light Rain,340,2012-10-05 08:15:00
3:35 AM,47.8,44.1,87,30.13,10.0,North,6.9,-,0.01,Rain,Heavy Rain,360,2012-10-05 08:35:00
3:55 AM,47.3,44.2,89,30.16,5.0,NNW,6.9,-,0.12,Rain,Heavy Rain,340,2012-10-05 08:55:00
4:15 AM,46.0,44.1,93,30.16,7.0,NNW,8.1,-,0.07,Rain,Heavy Rain,340,2012-10-05 09:15:00
4:35 AM,45.5,43.2,92,30.16,10.0,NNW,4.6,-,0.07,Rain,Light Rain,340,2012-10-05 09:35:00
4:55 AM,45.7,43.7,93,30.15,10.0,North,3.5,-,0.07,Rain,Light Rain,360,2012-10-05 09:55:00
5:15 AM,46.0,43.9,92,30.16,10.0,Calm,Calm,-,N/A,,Overcast,0,2012-10-05 10:15:00
5:35 AM,46.4,44.4,93,30.17,10.0,West,4.6,-,0.01,Rain,Light Rain,260,2012-10-05 10:35:00
5:55 AM,46.2,44.2,93,30.17,10.0,NW,6.9,-,0.04,Rain,Rain,310,2012-10-05 10:55:00
6:15 AM,46.4,42.8,87,30.15,10.0,NNW,5.8,-,N/A,Rain,Light Rain,340,2012-10-05 11:15:00
6:35 AM,45.5,42.8,90,30.15,10.0,NNW,5.8,-,0.01,Rain,Light Rain,340,2012-10-05 11:35:00
6:55 AM,45.5,43.0,91,30.14,10.0,NNW,4.6,-,0.01,Rain,Rain,330,2012-10-05 11:55:00
7:15 AM,44.8,41.7,89,30.15,10.0,NW,6.9,-,0.02,Rain,Rain,320,2012-10-05 12:15:00
7:35 AM,44.4,41.5,90,30.15,7.0,Calm,Calm,-,0.08,Rain,Heavy Rain,0,2012-10-05 12:35:00
7:55 AM,44.1,41.9,92,30.15,5.0,NW,8.1,-,0.14,Rain,Heavy Rain,310,2012-10-05 12:55:00
8:15 AM,43.9,41.9,93,30.16,7.0,NW,5.8,-,0.04,Rain,Heavy Rain,310,2012-10-05 13:15:00
8:35 AM,43.7,41.0,90,30.18,5.0,WNW,5.8,-,0.13,Rain,Heavy Rain,300,2012-10-05 13:35:00
8:55 AM,43.7,41.7,93,30.18,10.0,WNW,4.6,-,0.16,Rain,Rain,300,2012-10-05 13:55:00
9:15 AM,43.9,41.9,93,30.15,10.0,Calm,Calm,-,0.01,Rain,Rain,0,2012-10-05 14:15:00
9:35 AM,44.4,42.4,93,30.17,7.0,SW,4.6,-,0.04,Rain,Light Rain,230,2012-10-05 14:35:00
9:55 AM,44.6,42.8,93,30.15,10.0,Calm,Calm,-,0.04,,Overcast,0,2012-10-05 14:55:00
10:15 AM,45.5,43.0,91,30.15,10.0,WNW,4.6,-,N/A,Rain,Light Rain,290,2012-10-05 15:15:00
10:35 AM,45.5,42.1,88,30.16,10.0,WNW,6.9,-,N/A,,Overcast,300,2012-10-05 15:35:00
10:55 AM,45.7,41.2,84,30.16,10.0,WNW,5.8,-,N/A,,Overcast,300,2012-10-05 15:55:00
11:15 AM,45.5,40.5,83,30.16,10.0,WNW,6.9,-,N/A,,Overcast,300,2012-10-05 16:15:00
11:35 AM,45.5,39.0,78,30.15,10.0,NW,5.8,-,N/A,Rain,Light Rain,320,2012-10-05 16:35:00
11:55 AM,45.5,38.5,76,30.14,10.0,NW,11.5,-,N/A,,Overcast,320,2012-10-05 16:55:00
12:15 PM,45.0,37.4,75,30.14,10.0,NNW,4.6,-,N/A,,Overcast,330,2012-10-05 17:15:00
12:35 PM,45.7,38.3,75,30.13,10.0,North,4.6,-,N/A,Rain,Light Rain,350,2012-10-05 17:35:00
12:55 PM,45.7,38.5,76,30.12,10.0,North,6.9,-,N/A,Rain,Light Rain,350,2012-10-05 17:55:00
1:15 PM,45.3,39.7,81,30.14,10.0,WNW,10.4,-,N/A,,Overcast,290,2012-10-05 18:15:00
1:35 PM,43.7,38.7,82,30.12,10.0,NW,4.6,-,0.02,Rain,Light Rain,320,2012-10-05 18:35:00
1:55 PM,43.9,39.4,84,30.14,10.0,WSW,4.6,-,0.03,Rain,Rain,250,2012-10-05 18:55:00
2:15 PM,43.7,40.3,88,30.13,10.0,WNW,6.9,-,0.01,Rain,Light Rain,300,2012-10-05 19:15:00
2:35 PM,43.9,41.2,90,30.08,7.0,NNW,9.2,-,0.03,Rain,Heavy Rain,340,2012-10-05 19:35:00
2:55 PM,44.6,41.0,87,30.12,10.0,West,8.1,-,N/A,Rain,Light Rain,280,2012-10-05 19:55:00
3:15 PM,43.9,40.1,87,30.09,10.0,Calm,Calm,-,0.04,Rain,Light Rain,0,2012-10-05 20:15:00
3:35 PM,44.6,41.0,87,30.12,10.0,WNW,6.9,-,N/A,Rain,Light Rain,290,2012-10-05 20:35:00
3:55 PM,43.5,39.0,84,30.09,10.0,NNW,4.6,-,0.08,Rain,Light Rain,330,2012-10-05 20:55:00
4:15 PM,43.2,39.7,88,30.07,10.0,NNW,4.6,-,0.01,Rain,Rain,340,2012-10-05 21:15:00
4:35 PM,43.2,40.6,91,30.11,10.0,WNW,3.5,-,0.03,Rain,Heavy Rain,300,2012-10-05 21:35:00
4:55 PM,42.8,39.4,88,30.11,7.0,WNW,4.6,-,0.11,Rain,Rain,300,2012-10-05 21:55:00
5:15 PM,42.4,39.4,89,30.10,7.0,WNW,4.6,-,0.03,Rain,Rain,300,2012-10-05 22:15:00
5:35 PM,42.8,40.1,90,30.10,10.0,Calm,Calm,-,0.03,Rain,Light Rain,0,2012-10-05 22:35:00
5:55 PM,42.8,40.5,91,30.12,10.0,West,5.8,-,0.04,Rain,Rain,280,2012-10-05 22:55:00
6:15 PM,43.0,41.0,93,30.12,7.0,West,5.8,-,0.02,Rain,Rain,280,2012-10-05 23:15:00
6:35 PM,42.8,40.8,93,30.10,10.0,NW,5.8,-,0.04,Rain,Light Rain,310,2012-10-05 23:35:00
6:55 PM,43.0,40.3,90,30.12,10.0,WNW,5.8,-,0.05,Rain,Light Rain,300,2012-10-05 23:55:00
7:15 PM,42.8,40.1,90,30.12,10.0,WNW,8.1,-,0.01,Rain,Rain,290,2012-10-06 00:15:00
7:35 PM,42.8,39.2,87,30.11,10.0,WNW,5.8,-,N/A,Rain,Light Rain,290,2012-10-06 00:35:00
7:55 PM,41.9,39.2,90,30.09,10.0,WNW,4.6,-,0.03,Rain,Light Rain,300,2012-10-06 00:55:00
8:15 PM,41.9,39.2,90,30.09,10.0,WNW,4.6,-,N/A,Rain,Light Rain,300,2012-10-06 01:15:00
8:35 PM,41.9,39.4,91,30.09,10.0,West,3.5,-,N/A,,Overcast,280,2012-10-06 01:35:00
8:55 PM,41.7,39.4,91,30.09,10.0,West,3.5,-,N/A,,Mostly Cloudy,270,2012-10-06 01:55:00
9:15 PM,41.0,39.0,93,30.09,10.0,West,4.6,-,N/A,,Clear,260,2012-10-06 02:15:00
9:35 PM,40.1,38.3,93,30.10,10.0,West,5.8,-,N/A,,Clear,280,2012-10-06 02:35:00
9:55 PM,39.4,37.9,95,30.10,10.0,West,5.8,-,N/A,,Clear,270,2012-10-06 02:55:00
10:15 PM,39.2,37.8,95,30.09,10.0,West,6.9,-,N/A,,Clear,270,2012-10-06 03:15:00
10:35 PM,39.6,37.8,93,30.10,10.0,West,6.9,-,N/A,,Clear,280,2012-10-06 03:35:00
10:55 PM,39.6,37.0,91,30.10,10.0,West,6.9,-,N/A,,Clear,280,2012-10-06 03:55:00
11:15 PM,40.1,37.2,89,30.10,10.0,West,8.1,-,N/A,,Mostly Cloudy,270,2012-10-06 04:15:00
11:35 PM,39.7,36.7,89,30.10,10.0,West,8.1,-,N/A,,Scattered Clouds,280,2012-10-06 04:35:00
11:55 PM,38.8,36.0,89,30.10,10.0,West,6.9,-,N/A,,Clear,280,2012-10-06 04:55:00